QPF
0.00 0.00 0.00 0.00 0.00 0.00 0.00 0.00 0.00 0.00 0.00 0.00 0.00 0.00 0.00 0.00 0.00 0.00 0.00 0.00 0.00 0.00 0.00 0.00 0.00 0.00 0.00 0.00 0.00 0.00 0.00 0.00 0.00 0.00 0.00 0.00 0.00 0.00 0.00 0.00 0.00 0.00 0.00 0.00 0.00 0.00 0.00
0.00 0.00 0.00 0.00 0.00 0.00 0.00 0.00 0.00 0.00 0.00 0.00 0.00 0.00 0.00 0.00 0.00 0.00 0.00 0.00 0.00 0.00 0.00 0.00 0.00 0.00 0.00 0.00 0.00 0.00 0.00 0.00 0.00 0.00 0.00 0.00 0.00 0.00 0.00 0.00 0.00 0.00 0.00 0.00 0.00 0.00 0.00
0.00 0.00 0.00 0.00 0.00 0.00 0.00 0.00 0.00 0.00 0.00 0.00 0.00 0.00 0.00 0.00 0.00 0.00 0.00 0.00 0.00 0.00 0.00 0.00 0.00 0.00 0.00 0.00 0.00 0.00 0.00 0.00 0.00 0.00 0.00 0.00 0.00 0.00 0.00 0.00 0.00 0.00 0.00 0.00 0.00 0.00 0.00
0.00 0.00 0.00 0.00 0.00 0.00 0.00 0.00 0.00 0.00 0.00 0.00 0.00 0.00 0.00 0.00 0.00 0.00 0.00 0.00 0.00 0.00 0.00 0.00 0.00 0.00 0.00 0.00 0.00 0.00 0.00 0.00 0.00 0.00 0.00 0.00 0.00 0.00 0.00 0.00 0.00 0.00 0.00 0.00 0.00 0.00 0.00
0.00 0.00 0.00 0.00 0.00 0.00 0.00 0.00 0.00 0.00 0.00 0.00 0.00 0.00 0.00 0.00 0.00 0.00 0.00 0.00 0.00 0.00 0.00 0.00 0.00 0.00 0.00 0.00 0.00 0.00 0.00 0.00 0.00 0.00 0.00 0.00 0.00 0.00 0.00 0.00 0.00 0.00 0.00 0.00 0.00 0.00 0.00
0.00 0.00 0.00 0.00 0.00 0.00 0.00 0.00 0.00 0.00 0.00 0.00 0.00 0.00 0.00 0.00 0.00 0.00 0.00 0.00 0.00 0.00 0.00 0.00 0.00 0.00 0.00 0.00 0.00 0.00 0.00 0.00 0.00 0.00 0.00 0.00 0.00 0.00 0.00 0.00 0.00 0.00 0.00 0.00 0.00 0.00 0.00
0.00 0.00 0.00 0.00 0.00 0.00 0.00 0.00 0.00 0.00 0.00 0.00 0.00 0.00 0.00 0.00 0.00 0.00 0.00 0.00 0.00 0.00 0.00 0.00 0.00 0.00 0.00 0.00 0.00 0.00 0.00 0.00 0.00 0.00 0.00 0.00 0.00 0.00 0.00 0.00 0.00 0.00 0.00 0.00 0.00 0.00 0.00
0.00 0.00 0.00 0.00 0.00 0.00 0.00 0.00 0.00 0.00 0.00 0.00 0.00 0.00 0.00 0.00 0.00 0.00 0.00 0.00 0.00 0.00 0.00 0.00 0.00 0.00 0.00 0.00 0.00 0.00 0.00 0.00 0.00 0.00 0.00 0.00 0.00 0.00 0.00 0.00 0.00 0.00 0.00 0.00 0.00 0.00 0.00
0.00 0.00 0.00 0.00 0.00 0.00 0.00 0.00 0.00 0.00 0.00 0.00 0.00 0.00 0.00 0.00 0.00 0.00 0.00 0.00 0.00 0.00 0.00 0.00 0.00 0.00 0.00 0.00 0.00 0.00 0.00 0.00 0.00 0.00 0.00 0.00 0.00 0.00 0.00 0.00 0.00 0.00 0.00 0.00 0.00 0.00 0.00
0.00 0.00 0.00 0.00 0.00 0.00 0.00 0.00 0.00 0.00 0.00 0.00 0.00 0.00 0.00 0.00 0.00 0.00 0.00 0.00 0.00 0.00 0.00 0.00 0.00 0.00 0.00 0.00 0.00 0.00 0.00 0.00 0.00 0.00 0.00 0.00 0.00 0.00 0.00 0.00 0.00 0.00 0.00 0.00 0.00 0.00 0.00
0.00 0.00 0.00 0.00 0.00 0.00 0.00 0.00 0.00 0.00 0.00 0.00 0.00 0.01 0.00 0.00 0.00 0.00 0.00 0.00 0.00 0.00 0.02 0.00 0.00 0.00 0.00 0.00 0.00 0.00 0.00 0.00 0.00 0.00 0.00 0.00 0.00 0.00 0.00 0.00 0.00 0.00 0.00 0.00 0.01 0.02 0.02
0.00 0.00 0.00 0.00 0.00 0.00 0.00 0.00 0.00 0.00 0.00 0.00 0.00 0.02 0.00 0.00 0.00 0.00 0.00 0.00 0.00 0.04 0.06 0.00 0.00 0.00 0.00 0.00 0.00 0.00 0.00 0.00 0.00 0.00 0.00 0.00 0.00 0.00 0.00 0.00 0.00 0.00 0.00 0.00 0.00 0.00 0.00
0.00 0.00 0.00 0.00 0.00 0.00 0.00 0.00 0.00 0.00 0.00 0.00 0.00 0.02 0.00 0.00 0.00 0.00 0.00 0.02 0.09 0.07 0.00 0.00 0.00 0.00 0.00 0.00 0.00 0.00 0.00 0.00 0.00 0.00 0.00 0.00 0.00 0.00 0.00 0.00 0.00 0.00 0.00 0.00 0.00 0.00 0.00
0.00 0.00 0.00 0.00 0.00 0.00 0.00 0.00 0.00 0.00 0.00 0.01 0.00 0.00 0.00 0.00 0.00 0.00 0.04 0.13 0.17 0.03 0.00 0.00 0.01 0.00 0.00 0.00 0.00 0.00 0.00 0.00 0.00 0.00 0.00 0.00 0.00 0.00 0.00 0.00 0.00 0.00 0.00 0.00 0.00 0.00 0.00
0.00 0.00 0.00 0.00 0.00 0.00 0.00 0.00 0.00 0.00 0.01 0.01 0.00 0.00 0.00 0.00 0.00 0.01 0.06 0.11 0.05 0.03 0.02 0.02 0.03 0.04 0.02 0.00 0.00 0.00 0.00 0.00 0.00 0.00 0.02 0.01 0.00 0.00 0.00 0.00 0.00 0.00 0.00 0.00 0.00 0.00 0.00
0.00 0.00 0.00 0.00 0.00 0.00 0.00 0.00 0.00 0.00 0.02 0.02 0.02 0.00 0.00 0.00 0.00 0.01 0.03 0.03 0.01 0.00 0.00 0.06 0.16 0.11 0.08 0.01 0.03 0.04 0.05 0.01 0.00 0.00 0.01 0.02 0.03 0.01 0.00 0.00 0.00 0.00 0.00 0.00 0.00 0.00 0.00
0.00 0.00 0.00 0.00 0.00 0.00 0.00 0.00 0.00 0.01 0.03 0.03 0.01 0.01 0.00 0.00 0.00 0.02 0.04 0.01 0.00 0.00 0.00 0.02 0.03 0.03 0.04 0.08 0.11 0.11 0.07 0.01 0.00 0.01 0.03 0.05 0.09 0.04 0.00 0.00 0.00 0.00 0.00 0.00 0.01 0.02 0.02
0.00 0.00 0.00 0.00 0.00 0.00 0.00 0.00 0.00 0.02 0.03 0.01 0.03 0.01 0.00 0.00 0.00 0.00 0.00 0.00 0.00 0.00 0.00 0.01 0.04 0.04 0.05 0.09 0.19 0.15 0.08 0.01 0.01 0.02 0.05 0.04 0.07 0.03 0.00 0.00 0.00 0.00 0.00 0.00 0.02 0.03 0.02
0.00 0.00 0.00 0.00 0.00 0.00 0.00 0.00 0.00 0.02 0.04 0.04 0.02 0.01 0.02 0.02 0.02 0.01 0.01 0.00 0.00 0.00 0.00 0.01 0.03 0.03 0.03 0.05 0.11 0.09 0.05 0.03 0.06 0.09 0.16 0.09 0.15 0.09 0.04 0.01 0.00 0.00 0.00 0.00 0.00 0.05 0.08
0.00 0.00 0.00 0.01 0.00 0.01 0.01 0.01 0.01 0.00 0.08 0.07 0.05 0.02 0.02 0.05 0.03 0.01 0.01 0.01 0.00 0.00 0.00 0.00 0.00 0.00 0.02 0.04 0.04 0.12 0.07 0.04 0.02 0.02 0.09 0.24 0.20 0.06 0.02 0.00 0.00 0.00 0.00 0.00 0.00 0.04 0.01
0.00 0.00 0.01 0.01 0.01 0.02 0.01 0.00 0.00 0.00 0.05 0.07 0.04 0.02 0.01 0.02 0.01 0.01 0.01 0.01 0.00 0.00 0.00 0.00 0.00 0.00 0.01 0.07 0.03 0.03 0.02 0.03 0.03 0.05 0.10 0.31 0.21 0.03 0.01 0.01 0.09 0.07 0.03 0.01 0.00 0.01 0.04
0.01 0.01 0.01 0.01 0.01 0.01 0.01 0.01 0.01 0.00 0.04 0.06 0.04 0.02 0.02 0.01 0.01 0.02 0.03 0.02 0.00 0.00 0.01 0.01 0.00 0.00 0.02 0.07 0.06 0.10 0.07 0.04 0.02 0.01 0.03 0.08 0.10 0.06 0.04 0.05 0.13 0.14 0.15 0.13 0.12 0.12 0.12
0.00 0.00 0.00 0.00 0.01 0.00 0.00 0.01 0.01 0.02 0.04 0.03 0.01 0.02 0.04 0.06 0.04 0.05 0.03 0.01 0.00 0.00 0.01 0.00 0.00 0.02 0.01 0.01 0.03 0.05 0.05 0.05 0.06 0.04 0.04 0.04 0.04 0.07 0.08 0.06 0.11 0.16 0.12 0.10 0.11 0.07 0.07
0.00 0.00 0.00 0.00 0.01 0.01 0.01 0.01 0.02 0.02 0.05 0.03 0.01 0.02 0.03 0.03 0.03 0.03 0.02 0.02 0.01 0.02 0.03 0.02 0.02 0.04 0.03 0.01 0.02 0.02 0.02 0.02 0.02 0.03 0.04 0.05 0.05 0.08 0.08 0.06 0.12 0.10 0.04 0.04 0.06 0.06 0.06
0.00 0.00 0.00 0.00 0.00 0.00 0.00 0.00 0.00 0.00 0.01 0.02 0.02 0.03 0.06 0.07 0.07 0.08 0.06 0.06 0.04 0.04 0.03 0.03 0.02 0.02 0.04 0.04 0.04 0.03 0.01 0.01 0.00 0.00 0.02 0.04 0.07 0.07 0.07 0.07 0.09 0.06 0.03 0.02 0.02 0.04 0.03
0.00 0.00 0.00 0.01 0.00 0.00 0.00 0.00 0.00 0.00 0.00 0.01 0.01 0.03 0.10 0.16 0.23 0.09 0.05 0.05 0.04 0.05 0.04 0.02 0.01 0.03 0.06 0.07 0.06 0.04 0.03 0.02 0.02 0.01 0.00 0.01 0.04 0.07 0.08 0.08 0.07 0.03 0.01 0.02 0.02 0.04 0.02
0.00 0.00 0.00 0.00 0.00 0.00 0.00 0.01 0.01 0.00 0.00 0.01 0.02 0.08 0.17 0.31 0.29 0.11 0.07 0.06 0.05 0.06 0.07 0.03 0.03 0.04 0.05 0.08 0.09 0.07 0.04 0.04 0.04 0.02 0.01 0.01 0.02 0.04 0.05 0.06 0.05 0.03 0.00 0.00 0.02 0.03 0.00
0.00 0.00 0.00 0.00 0.00 0.00 0.00 0.01 0.01 0.00 0.00 0.00 0.03 0.08 0.15 0.23 0.22 0.11 0.08 0.07 0.07 0.07 0.08 0.07 0.06 0.04 0.04 0.07 0.08 0.07 0.06 0.06 0.04 0.04 0.03 0.02 0.03 0.02 0.04 0.04 0.05 0.01 0.00 0.01 0.01 0.00 0.00
0.00 0.00 0.00 0.00 0.00 0.00 0.00 0.00 0.00 0.00 0.00 0.00 0.02 0.08 0.10 0.18 0.24 0.16 0.12 0.11 0.10 0.09 0.08 0.07 0.07 0.06 0.05 0.06 0.06 0.06 0.05 0.04 0.04 0.03 0.02 0.03 0.03 0.03 0.04 0.04 0.03 0.01 0.02 0.02 0.00 0.00 0.00
MSLP
1023.45 1023.35 1023.24 1023.12 1022.89 1022.57 1022.22 1021.87 1021.63 1021.46 1021.16 1020.83 1020.54 1020.14 1019.74 1019.20 1018.65 1018.32 1017.60 1017.08 1016.77 1016.43 1016.04 1015.75 1015.51 1015.28 1014.53 1014.26 1012.74 1012.57 1012.59 1012.35 1012.38 1012.43 1012.29 1011.95 1011.84 1011.25 1010.48 1009.75 1009.43 1009.29 1009.28 1009.10 1009.26 1009.53 1009.73
1023.20 1023.12 1023.05 1022.91 1022.67 1022.51 1022.29 1022.03 1021.79 1021.57 1021.28 1020.89 1020.49 1020.10 1019.68 1019.16 1018.64 1018.08 1017.50 1016.89 1016.22 1015.70 1015.39 1015.35 1015.21 1015.23 1014.94 1013.63 1012.13 1012.11 1012.23 1012.29 1012.39 1012.15 1011.80 1011.79 1011.18 1011.05 1010.52 1010.19 1009.82 1009.93 1009.48 1009.46 1009.62 1009.93 1009.95
1023.01 1022.83 1022.72 1022.56 1022.40 1022.25 1022.10 1021.87 1021.68 1021.43 1021.18 1020.86 1020.46 1020.09 1019.69 1019.28 1018.79 1018.09 1017.30 1016.45 1015.79 1015.43 1015.06 1014.85 1015.07 1015.04 1014.30 1012.63 1011.88 1012.01 1012.23 1012.32 1012.39 1012.52 1012.21 1011.45 1011.54 1011.22 1010.61 1010.43 1010.11 1010.37 1010.31 1010.10 1009.85 1010.17 1010.59
1022.83 1022.67 1022.35 1022.15 1022.02 1021.84 1021.54 1021.32 1021.20 1021.07 1020.86 1020.59 1020.30 1020.02 1019.62 1019.17 1018.55 1017.85 1016.94 1015.88 1015.05 1014.84 1014.78 1014.79 1014.74 1014.58 1013.35 1012.26 1012.01 1012.26 1012.18 1012.25 1012.35 1012.23 1012.33 1012.07 1012.07 1011.55 1010.86 1010.73 1010.66 1010.65 1010.51 1010.23 1008.96 1009.98 1010.74
1022.57 1022.33 1022.03 1021.78 1021.59 1021.41 1021.33 1021.12 1020.88 1020.69 1020.45 1020.18 1019.97 1019.78 1019.53 1019.11 1018.57 1017.79 1016.77 1015.41 1014.45 1014.42 1014.52 1014.58 1014.71 1014.16 1012.88 1012.55 1012.38 1012.07 1012.31 1012.14 1012.35 1012.27 1012.21 1011.96 1012.08 1011.75 1011.18 1010.98 1010.73 1010.40 1010.13 1009.73 1009.81 1009.78 1010.70
1022.12 1021.79 1021.70 1021.60 1021.35 1021.15 1020.99 1020.76 1020.44 1020.20 1020.00 1019.83 1019.63 1019.45 1019.29 1018.93 1018.40 1017.65 1016.56 1014.92 1013.97 1014.17 1014.39 1014.09 1013.92 1014.07 1012.33 1011.88 1011.95 1012.17 1012.42 1012.44 1011.99 1012.03 1012.10 1012.13 1011.77 1011.61 1011.45 1010.80 1009.62 1009.23 1009.60 1009.27 1009.20 1009.54 1010.33
1021.87 1021.78 1021.57 1021.27 1021.15 1020.97 1020.72 1020.48 1020.26 1020.14 1019.86 1019.61 1019.47 1019.24 1018.98 1018.69 1018.23 1017.51 1016.44 1014.70 1014.80 1014.62 1014.07 1014.27 1013.61 1012.61 1011.76 1011.54 1012.03 1012.01 1012.17 1012.37 1012.01 1011.86 1011.73 1011.46 1011.43 1010.62 1010.12 1010.12 1009.35 1009.00 1008.95 1008.70 1008.44 1009.21 1009.98
1021.77 1021.49 1021.36 1021.16 1020.99 1020.79 1020.57 1020.27 1020.03 1019.77 1019.54 1019.34 1019.15 1018.94 1018.73 1018.57 1018.06 1017.53 1016.80 1016.89 1017.95 1018.20 1015.65 1013.87 1012.34 1011.54 1011.69 1012.37 1012.35 1012.19 1012.32 1012.36 1011.58 1011.03 1011.15 1011.14 1010.06 1009.62 1009.54 1009.43 1009.70 1009.67 1009.68 1009.34 1009.40 1009.83 1010.30
1021.48 1021.30 1021.07 1020.94 1020.58 1020.29 1020.06 1019.91 1019.74 1019.54 1019.24 1018.98 1018.86 1018.75 1018.51 1018.39 1017.94 1017.54 1017.69 1018.35 1018.49 1018.51 1017.16 1012.26 1011.80 1011.94 1012.57 1012.87 1012.42 1011.92 1012.33 1011.64 1011.04 1010.69 1010.44 1009.79 1009.15 1008.98 1009.40 1009.45 1009.75 1009.68 1010.03 1010.36 1010.69 1010.94 1011.06
1021.35 1021.10 1020.94 1020.64 1020.47 1020.12 1019.97 1019.78 1019.48 1019.20 1019.07 1018.96 1018.74 1018.59 1018.41 1018.41 1018.18 1018.13 1017.89 1018.19 1018.46 1018.74 1016.83 1012.57 1012.23 1012.96 1013.09 1013.08 1012.63 1012.31 1012.79 1012.52 1010.96 1010.33 1010.16 1009.45 1008.85 1009.54 1009.96 1009.88 1010.18 1010.53 1010.56 1010.91 1011.47 1012.04 1012.36
1021.01 1020.96 1020.63 1020.47 1020.16 1020.03 1019.79 1019.51 1019.33 1019.02 1018.80 1018.60 1018.46 1018.28 1018.31 1018.32 1018.62 1018.40 1018.35 1018.29 1018.49 1018.68 1016.53 1012.68 1012.73 1013.19 1012.97 1013.12 1012.86 1012.73 1012.85 1012.76 1011.80 1010.76 1010.51 1009.73 1010.01 1010.34 1010.42 1010.39 1010.51 1011.13 1011.35 1011.82 1012.41 1012.98 1013.13
1020.74 1020.61 1020.40 1020.11 1020.05 1019.82 1019.47 1019.17 1018.90 1018.75 1018.57 1018.27 1018.05 1018.00 1018.31 1018.56 1018.61 1018.24 1018.49 1018.57 1018.55 1018.56 1014.77 1012.73 1013.04 1013.29 1013.32 1012.81 1012.44 1012.35 1012.50 1012.88 1012.32 1011.58 1011.01 1010.88 1011.16 1011.12 1011.17 1011.38 1011.43 1012.04 1012.56 1013.26 1013.62 1014.18 1014.18
1020.30 1020.21 1019.99 1019.72 1019.35 1019.13 1018.97 1018.75 1018.49 1018.27 1018.07 1017.90 1017.80 1017.76 1018.06 1017.92 1018.46 1018.34 1018.24 1018.83 1018.60 1016.47 1013.15 1013.18 1013.27 1013.48 1013.25 1012.66 1012.22 1012.36 1012.43 1012.51 1012.31 1012.14 1011.40 1011.17 1011.36 1011.67 1011.83 1012.39 1012.71 1012.71 1013.27 1014.25 1015.23 1015.25 1013.46
1019.90 1019.76 1019.57 1019.30 1019.03 1018.87 1018.56 1018.31 1018.13 1017.96 1017.80 1017.62 1017.60 1017.50 1017.91 1018.57 1018.56 1018.58 1018.67 1018.68 1017.39 1014.84 1014.06 1013.10 1013.53 1013.59 1013.34 1012.62 1012.15 1012.22 1012.34 1011.92 1011.77 1011.68 1011.73 1011.54 1011.87 1011.89 1011.96 1012.22 1012.62 1013.18 1013.28 1013.30 1013.62 1013.85 1013.43
1019.64 1019.39 1019.11 1018.88 1018.56 1018.33 1018.07 1017.84 1017.81 1017.68 1017.64 1017.57 1017.58 1017.98 1018.62 1019.18 1018.79 1018.51 1018.80 1017.96 1015.66 1014.54 1014.37 1014.36 1014.25 1013.91 1013.19 1012.58 1012.97 1012.92 1012.34 1011.43 1010.54 1010.88 1011.87 1011.71 1011.71 1012.37 1012.75 1013.05 1013.21 1013.71 1013.78 1013.06 1013.21 1013.48 1013.53
1019.19 1018.99 1018.77 1018.36 1018.06 1017.91 1017.73 1017.54 1017.35 1017.30 1017.35 1017.41 1017.48 1018.21 1019.14 1019.51 1019.20 1018.88 1018.43 1016.62 1015.39 1014.52 1014.04 1014.61 1014.79 1014.58 1013.81 1013.21 1013.48 1013.34 1012.40 1011.02 1010.42 1010.44 1010.71 1011.87 1012.60 1012.95 1013.78 1014.03 1014.13 1014.00 1013.95 1013.75 1013.67 1013.64 1013.66
1018.67 1018.45 1018.28 1018.03 1017.75 1017.52 1017.35 1017.13 1016.92 1016.79 1016.70 1016.78 1017.66 1018.31 1019.67 1019.67 1019.49 1019.01 1017.82 1016.19 1014.78 1013.79 1014.01 1014.48 1014.29 1014.32 1013.86 1013.53 1013.29 1013.08 1012.04 1010.58 1010.39 1011.30 1011.77 1012.31 1012.92 1013.63 1014.29 1014.27 1014.03 1014.85 1014.38 1013.81 1013.29 1013.11 1013.15
1018.07 1017.94 1017.65 1017.29 1017.14 1017.02 1016.88 1016.71 1016.60 1016.60 1016.54 1016.54 1016.82 1018.45 1019.92 1020.08 1019.76 1018.40 1016.84 1015.53 1014.70 1013.80 1013.80 1014.02 1014.07 1013.94 1013.79 1013.62 1013.12 1012.91 1011.95 1011.55 1011.18 1011.98 1012.41 1012.44 1012.83 1012.88 1013.12 1014.11 1014.56 1014.43 1013.86 1013.36 1012.79 1013.07 1013.51
1017.72 1017.36 1016.99 1016.85 1016.71 1016.48 1016.36 1016.08 1015.98 1015.84 1016.16 1016.56 1017.16 1018.58 1019.89 1019.84 1018.81 1017.79 1016.34 1015.12 1014.38 1014.06 1013.87 1014.00 1014.11 1013.98 1013.82 1013.54 1013.29 1012.28 1011.85 1011.43 1011.48 1012.02 1012.10 1012.34 1012.69 1012.67 1013.21 1014.77 1015.24 1014.88 1013.89 1013.30 1012.71 1012.97 1013.71
1017.09 1016.79 1016.61 1016.36 1016.15 1015.93 1015.75 1015.72 1015.57 1015.45 1015.46 1016.01 1016.94 1018.01 1019.52 1019.43 1018.47 1017.46 1016.36 1015.13 1014.57 1014.01 1014.00 1014.03 1013.83 1013.94 1013.97 1013.64 1013.45 1012.65 1012.27 1012.05 1012.27 1012.55 1012.73 1012.64 1011.95 1011.11 1011.08 1011.90 1013.08 1015.00 1014.66 1014.00 1013.82 1014.48 1014.53
1016.38 1016.12 1016.00 1015.74 1015.54 1015.40 1015.30 1015.13 1015.11 1015.12 1015.06 1015.64 1015.93 1016.16 1016.15 1017.53 1017.45 1016.61 1016.34 1015.11 1014.41 1014.19 1014.08 1014.24 1014.02 1014.07 1014.04 1013.49 1013.32 1012.89 1012.66 1012.61 1012.98 1013.17 1013.35 1013.09 1012.05 1011.60 1011.37 1012.48 1013.88 1016.75 1017.63 1016.84 1016.24 1016.11 1017.49
1016.50 1016.07 1015.78 1015.58 1015.26 1015.04 1014.91 1014.80 1014.68 1014.65 1014.78 1015.03 1015.05 1015.70 1016.02 1015.80 1015.43 1015.58 1015.56 1014.36 1014.18 1013.95 1014.25 1014.06 1014.31 1013.96 1014.18 1014.11 1014.01 1013.60 1014.02 1014.17 1013.87 1014.25 1014.14 1013.51 1012.59 1012.18 1012.04 1013.14 1014.80 1018.48 1020.27 1020.38 1020.97 1021.40 1020.81
1017.18 1016.80 1016.48 1016.20 1015.84 1015.59 1015.34 1014.99 1014.76 1014.45 1014.29 1014.34 1014.65 1015.14 1015.61 1014.92 1015.29 1015.85 1014.78 1014.27 1013.67 1013.77 1013.63 1013.92 1014.40 1014.71 1014.70 1014.75 1014.98 1015.05 1015.18 1015.55 1015.55 1015.22 1015.00 1014.43 1013.82 1013.46 1013.33 1014.47 1016.90 1020.76 1024.55 1025.14 1025.80 1026.26 1026.15
1017.83 1017.49 1017.23 1016.97 1016.55 1016.23 1015.82 1015.34 1014.93 1014.61 1014.41 1013.70 1014.02 1014.72 1015.45 1014.91 1015.79 1015.89 1015.57 1015.09 1014.56 1014.49 1014.63 1014.98 1015.46 1015.63 1015.89 1015.59 1015.77 1015.83 1016.04 1016.31 1016.64 1016.73 1016.47 1015.75 1015.01 1014.66 1015.09 1016.53 1020.28 1026.12 1027.27 1027.93 1028.18 1028.76 1029.07
1018.39 1018.05 1018.00 1017.59 1017.13 1016.62 1016.13 1015.71 1015.12 1014.67 1014.36 1013.87 1013.75 1014.79 1015.43 1015.48 1017.11 1017.73 1017.81 1017.58 1016.66 1016.14 1016.07 1016.39 1016.84 1017.01 1016.65 1016.19 1015.96 1015.66 1016.27 1017.02 1017.89 1018.21 1017.89 1017.50 1016.73 1016.43 1017.28 1020.26 1024.91 1027.06 1028.68 1029.73 1030.09 1030.41 1030.42
1019.19 1018.87 1018.42 1017.96 1017.54 1017.26 1016.35 1015.77 1015.51 1015.04 1014.36 1014.47 1016.52 1016.38 1015.87 1016.98 1021.77 1022.59 1021.36 1020.04 1019.54 1018.91 1017.32 1017.90 1017.69 1017.35 1016.95 1016.31 1015.98 1015.83 1016.33 1018.04 1019.22 1019.76 1019.98 1019.66 1019.11 1019.19 1019.70 1022.28 1026.58 1030.12 1030.02 1030.19 1030.78 1030.91 1030.98
1019.94 1019.62 1019.11 1018.51 1017.96 1017.45 1016.68 1016.03 1015.95 1015.45 1015.21 1015.61 1017.63 1017.69 1018.12 1021.80 1024.71 1024.42 1024.14 1023.86 1022.89 1021.61 1020.24 1019.81 1019.46 1018.43 1017.54 1017.04 1016.89 1017.55 1018.95 1020.50 1022.96 1024.42 1024.93 1023.86 1023.73 1024.07 1024.18 1026.29 1029.53 1031.19 1030.38 1029.95 1031.13 1031.89 1031.18
1020.74 1020.13 1019.73 1019.19 1018.58 1018.00 1017.57 1016.93 1016.33 1016.20 1016.21 1016.51 1019.34 1018.73 1018.91 1023.72 1026.34 1026.37 1026.23 1026.01 1025.10 1024.37 1023.34 1021.98 1020.75 1020.27 1019.58 1019.11 1019.44 1020.53 1021.61 1023.79 1026.37 1028.44 1028.77 1029.02 1028.89 1028.74 1028.60 1029.27 1031.39 1032.00 1031.01 1031.62 1032.77 1032.11 1031.86
1021.73 1021.22 1020.46 1020.01 1019.46 1018.92 1018.42 1017.94 1017.19 1016.92 1016.81 1017.03 1019.49 1020.27 1019.90 1022.08 1026.73 1027.35 1027.66 1027.63 1027.18 1026.42 1025.63 1023.69 1023.29 1022.91 1022.59 1022.03 1022.25 1023.28 1025.06 1026.80 1028.13 1030.05 1031.04 1032.10 1033.11 1032.95 1032.85 1032.33 1032.74 1032.96 1032.87 1033.49 1033.44 1033.04 1032.43
Thickness
5625 5625 5625 5625 5625 5626 5627 5629 5630 5629 5629 5629 5629 5630 5631 5634 5637 5636 5641 5643 5642 5643 5644 5645 5644 5644 5650 5649 5658 5660 5658 5657 5656 5654 5651 5652 5647 5650 5651 5661 5663 5659 5663 5671 5670 5667 5665
5628 5626 5623 5623 5623 5624 5624 5623 5623 5623 5622 5623 5625 5626 5628 5630 5632 5634 5637 5639 5642 5644 5644 5641 5640 5638 5639 5640 5658 5656 5653 5652 5650 5649 5649 5646 5648 5648 5646 5648 5649 5652 5657 5660 5659 5657 5661
5625 5625 5624 5623 5622 5621 5620 5619 5620 5619 5619 5620 5621 5622 5622 5623 5624 5627 5630 5635 5639 5639 5640 5640 5634 5631 5633 5644 5652 5649 5645 5643 5641 5638 5636 5644 5640 5637 5642 5638 5645 5641 5635 5641 5647 5648 5645
5624 5625 5625 5625 5623 5622 5621 5621 5620 5618 5617 5616 5615 5614 5614 5615 5618 5622 5626 5633 5638 5636 5633 5630 5629 5627 5630 5643 5642 5638 5637 5634 5632 5631 5628 5629 5628 5628 5631 5633 5629 5623 5626 5621 5649 5640 5638
5620 5620 5622 5623 5623 5622 5620 5618 5616 5614 5613 5611 5610 5607 5607 5608 5610 5613 5619 5628 5632 5629 5626 5623 5619 5621 5627 5633 5630 5631 5626 5625 5621 5621 5619 5621 5618 5616 5620 5614 5612 5614 5610 5618 5622 5634 5622
5622 5623 5619 5618 5619 5618 5617 5616 5615 5612 5610 5608 5606 5604 5601 5600 5601 5605 5611 5620 5624 5620 5615 5615 5614 5607 5623 5626 5624 5618 5614 5612 5613 5611 5608 5605 5605 5599 5599 5604 5603 5615 5606 5619 5621 5619 5616
5618 5616 5615 5616 5613 5612 5611 5610 5608 5605 5603 5601 5599 5597 5595 5593 5594 5597 5602 5612 5607 5610 5611 5605 5605 5610 5617 5616 5612 5608 5606 5599 5602 5600 5594 5597 5587 5590 5606 5604 5613 5617 5615 5614 5628 5616 5611
5612 5612 5610 5608 5606 5606 5605 5604 5602 5600 5598 5595 5593 5591 5588 5585 5585 5586 5586 5582 5569 5565 5579 5601 5609 5612 5607 5596 5593 5595 5594 5588 5592 5590 5590 5584 5585 5605 5607 5605 5601 5599 5593 5598 5607 5599 5598
5606 5605 5606 5604 5605 5603 5600 5599 5596 5593 5591 5589 5585 5582 5580 5577 5578 5576 5570 5558 5552 5550 5557 5611 5602 5599 5587 5582 5583 5588 5579 5584 5585 5583 5584 5582 5596 5601 5594 5593 5588 5588 5580 5586 5586 5580 5582
5597 5597 5597 5596 5595 5596 5593 5591 5589 5588 5584 5579 5576 5572 5570 5567 5566 5562 5563 5551 5543 5533 5552 5598 5589 5573 5568 5564 5568 5570 5562 5561 5577 5576 5576 5580 5592 5581 5576 5579 5577 5565 5573 5578 5571 5564 5552
5591 5588 5588 5587 5587 5585 5583 5582 5580 5578 5576 5573 5568 5565 5562 5556 5551 5550 5545 5538 5532 5522 5534 5578 5570 5557 5554 5549 5547 5551 5548 5549 5553 5565 5564 5567 5564 5561 5564 5569 5568 5560 5561 5558 5549 5532 5538
5585 5582 5581 5581 5578 5576 5575 5575 5573 5570 5567 5564 5561 5557 5550 5544 5540 5537 5529 5524 5517 5516 5527 5556 5549 5545 5538 5539 5543 5539 5537 5532 5534 5541 5547 5546 5542 5547 5551 5543 5547 5541 5540 5536 5536 5514 5481
5579 5576 5574 5573 5573 5572 5570 5568 5567 5563 5560 5556 5553 5548 5542 5538 5534 5524 5520 5508 5505 5519 5556 5538 5533 5528 5526 5531 5531 5525 5524 5517 5515 5517 5528 5534 5530 5524 5532 5522 5528 5529 5523 5489 5465 5443 5501
5572 5569 5566 5566 5566 5563 5563 5561 5557 5554 5550 5547 5544 5538 5532 5521 5516 5508 5502 5494 5503 5534 5530 5534 5519 5514 5509 5528 5522 5519 5512 5508 5511 5520 5515 5520 5529 5512 5518 5523 5516 5503 5515 5523 5509 5510 5528
5564 5562 5561 5560 5559 5557 5556 5553 5548 5545 5539 5535 5532 5525 5515 5505 5500 5496 5490 5491 5514 5520 5513 5500 5494 5482 5496 5517 5502 5497 5498 5508 5528 5516 5504 5517 5530 5494 5493 5494 5498 5499 5486 5506 5499 5491 5503
5557 5555 5553 5554 5552 5549 5546 5543 5540 5535 5529 5524 5522 5512 5500 5490 5485 5482 5485 5504 5500 5509 5506 5482 5476 5477 5483 5502 5475 5475 5482 5506 5517 5508 5507 5501 5498 5486 5469 5477 5476 5480 5482 5483 5475 5491 5489
5551 5549 5546 5544 5542 5539 5537 5535 5532 5528 5524 5518 5506 5505 5484 5478 5473 5474 5482 5491 5502 5509 5498 5479 5475 5471 5481 5481 5474 5471 5480 5507 5512 5486 5482 5478 5477 5465 5460 5449 5467 5454 5461 5462 5481 5481 5494
5546 5543 5541 5540 5536 5533 5530 5526 5522 5517 5513 5507 5505 5499 5470 5463 5470 5469 5479 5476 5494 5500 5493 5479 5470 5471 5472 5472 5468 5464 5481 5484 5484 5473 5461 5464 5463 5480 5465 5422 5423 5432 5462 5469 5489 5477 5470
5537 5537 5534 5531 5527 5526 5522 5520 5516 5510 5501 5493 5487 5471 5456 5453 5476 5474 5474 5484 5488 5485 5483 5465 5460 5457 5460 5463 5464 5472 5471 5481 5475 5461 5455 5452 5452 5472 5471 5430 5408 5421 5439 5452 5468 5466 5474
5532 5529 5525 5523 5520 5518 5515 5510 5506 5500 5493 5484 5470 5472 5445 5440 5443 5453 5465 5470 5472 5474 5468 5463 5457 5451 5447 5451 5452 5457 5463 5459 5444 5450 5450 5441 5455 5478 5507 5492 5450 5412 5429 5449 5467 5452 5457
5526 5524 5519 5516 5513 5510 5507 5503 5496 5489 5483 5473 5467 5471 5470 5452 5444 5447 5448 5457 5462 5460 5455 5447 5445 5443 5446 5451 5452 5455 5455 5453 5429 5431 5427 5428 5444 5452 5465 5465 5439 5372 5359 5408 5442 5449 5446
5513 5511 5510 5507 5505 5502 5497 5490 5484 5480 5473 5467 5465 5459 5445 5455 5458 5449 5443 5460 5453 5452 5443 5446 5438 5445 5437 5434 5437 5442 5431 5434 5431 5409 5410 5415 5428 5420 5436 5426 5420 5337 5319 5329 5319 5309 5370
5497 5495 5494 5491 5489 5485 5480 5477 5472 5469 5464 5460 5453 5447 5441 5461 5443 5440 5452 5448 5448 5446 5437 5426 5424 5414 5419 5417 5398 5394 5390 5382 5379 5395 5396 5400 5403 5408 5425 5403 5384 5341 5277 5283 5278 5272 5281
5481 5479 5476 5472 5469 5465 5463 5461 5459 5457 5451 5455 5450 5439 5431 5453 5437 5440 5434 5430 5436 5429 5425 5404 5395 5398 5385 5381 5377 5372 5369 5365 5361 5362 5364 5371 5388 5394 5392 5386 5387 5250 5255 5256 5248 5243 5245
5466 5464 5457 5454 5451 5448 5447 5446 5446 5444 5441 5442 5438 5430 5423 5439 5400 5389 5368 5385 5392 5395 5392 5381 5371 5364 5363 5367 5376 5382 5373 5367 5345 5343 5346 5347 5359 5373 5374 5289 5250 5242 5234 5225 5217 5221 5219
5447 5444 5441 5437 5434 5430 5433 5432 5429 5428 5428 5422 5401 5399 5407 5419 5331 5316 5337 5355 5355 5358 5378 5360 5355 5352 5355 5364 5375 5383 5389 5353 5344 5325 5319 5321 5320 5332 5337 5310 5265 5200 5207 5211 5199 5207 5199
5427 5423 5420 5418 5416 5415 5417 5417 5412 5411 5408 5401 5381 5377 5364 5318 5292 5298 5298 5301 5307 5319 5331 5333 5324 5335 5341 5354 5363 5347 5324 5303 5261 5246 5245 5261 5250 5250 5265 5221 5191 5180 5192 5201 5196 5179 5179
5406 5404 5400 5398 5397 5397 5394 5394 5393 5389 5384 5377 5351 5352 5345 5296 5272 5272 5272 5269 5275 5277 5291 5296 5310 5308 5305 5322 5317 5296 5285 5258 5223 5202 5203 5195 5198 5199 5204 5196 5172 5162 5176 5168 5150 5151 5151
5385 5382 5380 5377 5374 5371 5368 5365 5366 5362 5358 5352 5330 5320 5319 5298 5257 5253 5248 5248 5248 5249 5251 5264 5274 5267 5264 5279 5268 5256 5231 5216 5205 5189 5180 5161 5151 5155 5154 5158 5148 5138 5139 5127 5123 5122 5125